Regional Weather Roundup
Issued by NWS

Home | Current Version | Previous Version | Graphics & Text | Print | Product List | Glossary On
Versions: 1 2 3 4 5 6 7 8 9 10 11 12 13 14 15 16 17 18 19 20 21 22 23 24 25 26 27 28 29 30 31 32 33 34 35 36 37 38 39 40 41 42 43 44 45 46 47 48 49 50
000
ASUS45 KABQ 272001
RWRNM
WEATHER ROUNDUP FOR NEW MEXICO
NATIONAL WEATHER SERVICE ALBUQUERQUE NM
200 PM MDT FRI MAR 27 2015

NOTE: "FAIR" MEANS FEW OR NO CLOUDS BELOW 12,000 FEET AGL WITH NO
       SIGNIFICANT WEATHER OR OBSTRUCTIONS TO VISION.

      THIS PRODUCT IS RELEASED AS TWO VERSIONS.  ONE VERSION NEAR
      THE TOP OF THE HOUR CONTAINING PRELIMINARY DATA FROM ALBUQUERQUE
      AND OTHER STATIONS.  A FINAL VERSION WITH ADDITIONAL DATA IS
      ISSUED ABOUT 10 MINUTES AFTER THE HOUR.

NMZ501-503-504-510>518-272100-
NORTHWEST PLATEAU/NORTHCENTRAL MOUNTAINS

CITY           SKY/WX    TMP DP  RH WIND       PRES   REMARKS
FARMINGTON     SUNNY     69  20  15 W21       30.24F
LOS ALAMOS     SUNNY     62  21  21 E7        30.30F
SANTA FE       SUNNY     66  17  15 W13G21    30.25F
TAOS           SUNNY     63  23  22 S6        30.27F
ANGEL FIRE     FAIR      59  24  25 W13       30.30F

$$
NMZ402-403-502-505>509-272100-
WESTCENTRAL MOUNTAINS/SOUTHWEST MOUNTAINS

CITY           SKY/WX    TMP DP  RH WIND       PRES   REMARKS
GALLUP         SUNNY     72  17  12 SW13      30.30F
GRANTS         SUNNY     69  15  12 NW12      30.32F
SILVER CITY    SUNNY     72  18  13 SE9G17    30.29F

$$
NMZ407-409-411-412-272100-
SOUTHERN DESERTS

CITY           SKY/WX    TMP DP  RH WIND       PRES   REMARKS
LORDSBURG      FAIR      73  23  15 CALM      30.23F
DEMING         SUNNY     73  19  13 CALM      30.24F
LAS CRUCES     SUNNY     74  19  12 W8        30.25F
ALAMOGORDO     MOSUNNY   72  21  15 CALM      30.23F
T OR C         SUNNY     72  17  12 CALM      30.23F

$$
NMZ519>523-272100-
CENTRAL VALLEYS/CENTRAL HIGHLANDS

CITY           SKY/WX    TMP DP  RH WIND       PRES   REMARKS
ALBUQUERQUE    SUNNY     71  21  15 W10G18    30.24F
DOUBLE EAGLE   SUNNY     70  19  14 W15       30.27F
MORIARTY ARPT  FAIR      70  15  12 W15       30.25F
CLINES CORNERS SUNNY     65  16  15 NW15G24   30.26F
BELEN          FAIR      72  18  12 W10       30.23F
SOCORRO        FAIR      73  20  13 NE5       30.23F

$$
NMZ524>526-539-540-272100-
SOUTHCENTRAL MOUNTAINS

CITY           SKY/WX    TMP DP  RH WIND       PRES   REMARKS
RUIDOSO        NOT AVBL

$$
NMZ527>531-272100-
NORTHEAST HIGHLANDS/NORTHEAST PLAINS

CITY           SKY/WX    TMP DP  RH WIND       PRES   REMARKS
LAS VEGAS      SUNNY     67  21  17 VRB7      30.23F
RATON          SUNNY     68  21  16 SW7G18    30.17F
CLAYTON        SUNNY     69  29  22 SE5       30.15F

$$
NMZ532>537-272100-
EASTCENTRAL PLAINS

CITY           SKY/WX    TMP DP  RH WIND       PRES   REMARKS
TUCUMCARI      SUNNY     72  22  15 E9        30.15F
CANNON AFB     NOT AVBL
CLOVIS AIRPORT SUNNY     72  27  18 NE7       30.17F

$$
NMZ028-029-538-272100-
SOUTHEAST PLAINS

CITY           SKY/WX    TMP DP  RH WIND       PRES   REMARKS
ROSWELL        SUNNY     77  27  15 MISG      30.15F
ARTESIA        SUNNY     77  21  12 VRB6      30.15F
CARLSBAD       SUNNY     77  31  18 SE6       30.14F
HOBBS          SUNNY     75  23  14 W12       30.17F


$$



USA.gov is the U.S. government's official web portal to all federal, state and local government web resources and services.